Total_Precipitation_Accumulation
0.17 0.22 0.28 0.33 0.21 0.19 0.15 0.13 0.11 0.11 0.08 0.04 0.02 0.02 0.02 0.02 0.02 0.02 0.02 0.05 0.07 0.10 0.13 0.12 0.10 0.10 0.11 0.12 0.12 0.12 0.12 0.12 0.12 0.11 0.08 0.06 0.05 0.04 0.04 0.04 0.05 0.06 0.07
0.26 0.34 0.31 0.28 0.19 0.16 0.18 0.24 0.24 0.16 0.11 0.09 0.05 0.05 0.05 0.05 0.04 0.04 0.04 0.06 0.10 0.10 0.13 0.14 0.14 0.14 0.13 0.13 0.14 0.14 0.15 0.15 0.16 0.17 0.16 0.14 0.12 0.10 0.09 0.08 0.08 0.08 0.07
0.20 0.26 0.30 0.28 0.22 0.18 0.17 0.18 0.22 0.24 0.20 0.17 0.13 0.09 0.09 0.10 0.10 0.08 0.07 0.07 0.09 0.12 0.14 0.13 0.13 0.12 0.12 0.14 0.15 0.16 0.17 0.17 0.17 0.17 0.17 0.18 0.18 0.19 0.19 0.17 0.17 0.17 0.15
0.22 0.26 0.32 0.32 0.30 0.28 0.28 0.28 0.27 0.28 0.29 0.24 0.21 0.20 0.17 0.17 0.16 0.14 0.10 0.10 0.10 0.10 0.12 0.12 0.10 0.10 0.11 0.11 0.13 0.15 0.19 0.21 0.21 0.19 0.19 0.19 0.21 0.20 0.21 0.22 0.23 0.23 0.23
0.38 0.41 0.45 0.48 0.46 0.46 0.43 0.39 0.37 0.33 0.32 0.29 0.23 0.19 0.17 0.18 0.16 0.12 0.09 0.09 0.08 0.07 0.07 0.08 0.09 0.10 0.10 0.09 0.09 0.10 0.11 0.14 0.18 0.19 0.18 0.18 0.20 0.21 0.19 0.19 0.21 0.24 0.26
0.72 0.70 0.70 0.68 0.67 0.59 0.51 0.45 0.39 0.34 0.29 0.25 0.18 0.13 0.11 0.10 0.08 0.06 0.05 0.05 0.04 0.04 0.03 0.03 0.03 0.04 0.06 0.05 0.05 0.05 0.05 0.06 0.09 0.12 0.12 0.15 0.19 0.20 0.18 0.17 0.19 0.23 0.25
1.12 1.02 0.91 0.85 0.78 0.65 0.53 0.43 0.35 0.30 0.25 0.19 0.15 0.11 0.07 0.04 0.03 0.02 0.02 0.01 0.01 0.01 0.01 0.01 0.01 0.01 0.01 0.02 0.02 0.02 0.02 0.03 0.04 0.05 0.07 0.13 0.16 0.13 0.13 0.13 0.15 0.19 0.24
1.45 1.35 1.27 1.15 0.95 0.76 0.61 0.47 0.37 0.30 0.24 0.18 0.15 0.11 0.08 0.04 0.02 0.01 0.01 0.01 0.01 0.01 0.01 0.01 0.01 0.00 0.00 0.00 0.00 0.01 0.02 0.02 0.02 0.03 0.06 0.10 0.13 0.12 0.11 0.12 0.12 0.15 0.21
1.69 1.55 1.45 1.29 1.09 0.88 0.73 0.57 0.42 0.32 0.23 0.15 0.08 0.06 0.05 0.04 0.02 0.01 0.01 0.01 0.01 0.01 0.01 0.00 0.00 0.00 0.00 0.00 0.00 0.00 0.01 0.02 0.02 0.02 0.04 0.09 0.11 0.11 0.11 0.12 0.14 0.16 0.21
1.55 1.36 1.21 1.04 0.89 0.72 0.55 0.40 0.28 0.20 0.12 0.07 0.04 0.03 0.02 0.02 0.02 0.02 0.01 0.00 0.00 0.00 0.00 0.00 0.00 0.00 0.00 0.00 0.00 0.00 0.00 0.02 0.02 0.02 0.02 0.05 0.08 0.11 0.11 0.11 0.12 0.16 0.19
1.27 1.09 0.92 0.73 0.54 0.39 0.27 0.19 0.14 0.11 0.09 0.06 0.04 0.03 0.02 0.01 0.01 0.02 0.01 0.00 0.00 0.00 0.00 0.00 0.00 0.00 0.00 0.00 0.01 0.01 0.01 0.02 0.02 0.03 0.03 0.03 0.04 0.09 0.12 0.11 0.12 0.14 0.17
0.96 0.73 0.54 0.36 0.24 0.17 0.13 0.10 0.08 0.06 0.04 0.03 0.01 0.01 0.01 0.01 0.01 0.01 0.01 0.00 0.00 0.00 0.00 0.00 0.00 0.00 0.00 0.00 0.00 0.00 0.01 0.02 0.03 0.03 0.02 0.02 0.02 0.04 0.07 0.10 0.12 0.16 0.19
0.56 0.39 0.27 0.20 0.14 0.10 0.06 0.04 0.03 0.02 0.01 0.01 0.01 0.01 0.00 0.00 0.00 0.00 0.00 0.00 0.00 0.00 0.00 0.00 0.00 0.00 0.00 0.00 0.00 0.00 0.01 0.03 0.03 0.03 0.02 0.01 0.01 0.02 0.03 0.04 0.07 0.11 0.16
0.32 0.26 0.21 0.14 0.08 0.04 0.03 0.02 0.01 0.01 0.01 0.01 0.01 0.01 0.01 0.01 0.01 0.00 0.01 0.01 0.01 0.00 0.00 0.00 0.00 0.00 0.00 0.00 0.00 0.00 0.02 0.02 0.03 0.04 0.03 0.02 0.02 0.02 0.02 0.04 0.05 0.07 0.09
0.17 0.12 0.09 0.05 0.03 0.01 0.01 0.01 0.01 0.01 0.01 0.01 0.01 0.01 0.02 0.01 0.01 0.01 0.02 0.04 0.06 0.05 0.02 0.00 0.00 0.00 0.00 0.00 0.00 0.01 0.04 0.05 0.04 0.04 0.04 0.03 0.03 0.03 0.03 0.04 0.05 0.05 0.06
0.07 0.04 0.02 0.02 0.01 0.01 0.01 0.01 0.01 0.01 0.01 0.01 0.01 0.02 0.02 0.02 0.03 0.04 0.05 0.05 0.06 0.08 0.06 0.02 0.01 0.01 0.02 0.02 0.01 0.03 0.06 0.06 0.05 0.04 0.04 0.04 0.05 0.05 0.05 0.06 0.07 0.08 0.08
0.04 0.02 0.02 0.01 0.01 0.01 0.01 0.01 0.01 0.01 0.01 0.01 0.02 0.02 0.04 0.05 0.06 0.06 0.06 0.05 0.06 0.09 0.11 0.05 0.02 0.03 0.06 0.08 0.09 0.12 0.12 0.13 0.11 0.08 0.07 0.08 0.08 0.08 0.08 0.10 0.10 0.11 0.12
0.02 0.01 0.01 0.02 0.02 0.01 0.01 0.01 0.01 0.02 0.02 0.02 0.03 0.04 0.05 0.05 0.07 0.07 0.06 0.06 0.07 0.10 0.13 0.11 0.08 0.07 0.10 0.13 0.14 0.15 0.08 0.06 0.11 0.09 0.08 0.09 0.10 0.12 0.13 0.13 0.13 0.11 0.09
0.03 0.04 0.04 0.03 0.03 0.02 0.02 0.02 0.02 0.02 0.02 0.03 0.03 0.04 0.05 0.05 0.06 0.06 0.06 0.06 0.07 0.09 0.14 0.18 0.15 0.13 0.12 0.10 0.13 0.11 0.11 0.16 0.11 0.08 0.08 0.08 0.09 0.09 0.08 0.08 0.07 0.07 0.06
0.05 0.05 0.04 0.03 0.02 0.01 0.01 0.01 0.01 0.01 0.01 0.02 0.03 0.03 0.04 0.04 0.05 0.06 0.06 0.07 0.11 0.15 0.17 0.20 0.17 0.12 0.10 0.08 0.14 0.14 0.13 0.13 0.12 0.09 0.09 0.07 0.07 0.05 0.04 0.03 0.04 0.05 0.05
0.06 0.05 0.03 0.02 0.01 0.01 0.00 0.00 0.00 0.00 0.01 0.01 0.02 0.02 0.03 0.04 0.05 0.06 0.07 0.10 0.16 0.20 0.20 0.21 0.17 0.12 0.09 0.10 0.14 0.16 0.16 0.11 0.08 0.07 0.08 0.06 0.06 0.06 0.06 0.05 0.04 0.04 0.04
0.03 0.02 0.01 0.01 0.01 0.00 0.00 0.00 0.00 0.00 0.01 0.02 0.03 0.03 0.03 0.03 0.03 0.03 0.06 0.11 0.17 0.21 0.21 0.22 0.19 0.17 0.12 0.14 0.20 0.22 0.22 0.22 0.17 0.11 0.13 0.08 0.07 0.07 0.08 0.10 0.10 0.07 0.06
0.02 0.02 0.01 0.01 0.02 0.01 0.00 0.00 0.00 0.00 0.02 0.03 0.05 0.06 0.04 0.02 0.04 0.07 0.07 0.07 0.08 0.10 0.16 0.24 0.25 0.21 0.20 0.22 0.32 0.33 0.31 0.31 0.25 0.19 0.22 0.17 0.11 0.11 0.10 0.10 0.12 0.11 0.08
0.02 0.02 0.01 0.02 0.03 0.02 0.00 0.00 0.00 0.01 0.03 0.04 0.05 0.06 0.06 0.06 0.06 0.07 0.06 0.05 0.05 0.05 0.09 0.15 0.22 0.22 0.20 0.24 0.34 0.39 0.37 0.33 0.25 0.20 0.29 0.30 0.17 0.14 0.11 0.16 0.20 0.17 0.12
0.02 0.02 0.02 0.02 0.04 0.05 0.01 0.00 0.00 0.01 0.02 0.02 0.03 0.04 0.05 0.07 0.07 0.08 0.07 0.07 0.06 0.06 0.08 0.15 0.22 0.27 0.32 0.38 0.41 0.42 0.43 0.42 0.34 0.25 0.34 0.39 0.30 0.22 0.17 0.21 0.24 0.21 0.20
0.02 0.02 0.02 0.03 0.05 0.07 0.02 0.00 0.01 0.01 0.02 0.02 0.02 0.04 0.07 0.07 0.07 0.07 0.06 0.09 0.13 0.11 0.14 0.20 0.33 0.51 0.57 0.55 0.50 0.46 0.45 0.45 0.43 0.45 0.42 0.46 0.40 0.31 0.26 0.23 0.24 0.25 0.29